Location: Unspecified
(49.8710°N, 0.0000°E)
Time: 06:07:18
(UTC+00:00)

CAS-6 - Visible Passes

Search period start: 04 April 2026 00:00
Search period end: 14 April 2026 00:00
Orbit: 600 x 619 km, 97.8° (Epoch: 29 March)

Date Brightness Start Highest point End Pass type
(mag) Time Alt. Az. Time Alt. Az. Time Alt. Az.
4 Apr ? 21:11:23 40° NE 21:11:23 40° NE 21:15:01 10° N visible
4 Apr ? 22:48:19 20° WNW 22:48:19 20° WNW 22:50:30 10° NW visible
5 Apr ? 21:25:22 52° NE 21:25:22 52° NE 21:29:04 10° N visible
5 Apr ? 23:02:17 16° WNW 23:02:17 16° WNW 23:04:01 10° NW visible
6 Apr ? 20:02:24 10° ENE 20:03:35 12° NE 20:05:01 10° NE visible
6 Apr ? 21:39:20 64° N 21:39:20 64° N 21:43:03 10° N visible
6 Apr ? 23:16:16 12° WNW 23:16:16 12° WNW 23:17:11 10° WNW visible
7 Apr ? 20:16:23 14° ENE 20:17:19 15° ENE 20:19:45 10° NNE visible
7 Apr ? 21:53:19 62° NW 21:53:19 62° NW 21:56:59 10° NNW visible
8 Apr ? 20:30:21 19° ENE 20:31:05 19° ENE 20:34:09 10° NNE visible
8 Apr ? 22:07:17 50° WNW 22:07:17 50° WNW 22:10:52 10° NNW visible
9 Apr ? 20:44:20 24° ENE 20:44:52 25° ENE 20:48:23 10° N visible
9 Apr ? 22:21:16 38° WNW 22:21:16 38° WNW 22:24:41 10° NNW visible
10 Apr ? 20:58:18 32° ENE 20:58:41 33° ENE 21:02:33 10° N visible
10 Apr ? 22:35:14 29° WNW 22:35:14 29° WNW 22:38:25 10° NNW visible
11 Apr ? 21:12:17 43° E 21:12:32 43° ENE 21:16:38 10° N visible
11 Apr ? 22:49:13 22° W 22:49:13 22° W 22:52:03 10° NW visible
12 Apr ? 21:26:15 59° E 21:26:24 59° ENE 21:30:39 10° N visible
12 Apr ? 23:03:11 17° W 23:03:11 17° W 23:05:31 10° NW visible
13 Apr ? 20:03:27 10° ENE 20:05:06 12° NE 20:06:46 10° NNE visible
13 Apr ? 21:40:13 81° E 21:40:17 81° ENE 21:44:38 10° NNW visible
13 Apr ? 23:17:09 12° W 23:17:09 12° W 23:18:38 10° WNW visible
